This is the latest recevied weather packets stored in our database for station/object WS2Z. If no packets are shown the sender has not sent any weather packets the latest 10 day(s).
| Time | Temp. | Humidity | Pressure | Rain* | Wind** | Luminosity | Snow |
|---|---|---|---|---|---|---|---|
| 1777466723 | 21.11° C | 88% | 1017.1 hPa | 0 mm | - | 49 W/m² | - |
| 1777466421 | 21.11° C | 90% | 1017.3 hPa | 0 mm | - | 50 W/m² | - |
| 1777466121 | 20.56° C | 91% | 1017 hPa | 0 mm | - | 46 W/m² | - |
| 1777465819 | 20° C | 91% | 1016.7 hPa | 0 mm | - | 44 W/m² | - |
| 1777465514 | 19.44° C | 93% | 1016.8 hPa | 0 mm | - | 40 W/m² | - |
| 1777465214 | 19.44° C | 92% | 1016.8 hPa | 0 mm | - | 38 W/m² | - |
| 1777464909 | 18.89° C | 93% | 1016.9 hPa | 0 mm | - | 35 W/m² | - |
| 1777464604 | 18.89° C | 94% | 1016.9 hPa | 0 mm | - | 36 W/m² | - |
| 1777464300 | 18.33° C | 94% | 1016.7 hPa | 0 mm | - | 33 W/m² | - |
| 1777463996 | 17.78° C | 94% | 1016.8 hPa | 0 mm | - | 54 W/m² | - |
| 1777463691 | 17.78° C | 94% | 1016.8 hPa | 0 mm | - | 30 W/m² | - |
| 1777463386 | 17.22° C | 95% | 1016.9 hPa | 0 mm | - | 54 W/m² | - |
| 1777463083 | 17.78° C | 94% | 1016.9 hPa | 0 mm | - | 44 W/m² | - |
| 1777462778 | 17.78° C | 94% | 1016.7 hPa | 0 mm | - | 33 W/m² | - |
| 1777462474 | 17.78° C | 95% | 1016.6 hPa | 0 mm | - | 26 W/m² | - |
| 1777462171 | 17.78° C | 94% | 1016.5 hPa | 0 mm | - | 20 W/m² | - |
| 1777461867 | 17.78° C | 94% | 1016.6 hPa | 0 mm | - | 24 W/m² | - |
| 1777461564 | 18.33° C | 95% | 1016.3 hPa | 0 mm | - | 16 W/m² | - |
| 1777461260 | 18.33° C | 95% | 1016.2 hPa | 0 mm | - | 15 W/m² | - |
| 1777460955 | 18.33° C | 95% | 1016.2 hPa | 0 mm | - | 10 W/m² | - |
| 1777460651 | 18.33° C | 94% | 1016.2 hPa | 0 mm | - | 8 W/m² | - |
| 1777460346 | 18.33° C | 94% | 1016.3 hPa | 0 mm | - | 5 W/m² | - |
| 1777460043 | 18.33° C | 94% | 1016.3 hPa | 0 mm | - | 3 W/m² | - |
| 1777459740 | 18.33° C | 94% | 1016.4 hPa | 0 mm | - | 2 W/m² | - |
| 1777459436 | 18.33° C | 94% | 1016.4 hPa | 0 mm | - | 1 W/m² | - |
* Rain latest hour (hover to see other rain measurements)
** Current wind speed in m/s (hover to see current wind gust speed)